Weather Roundup
Issued by NWS Springfield, MO

Home | Current Version | Previous Version | Text Only | Print | Product List | Glossary On
Versions: 1 2 3 4 5 6 7 8 9 10 11 12 13 14 15 16 17 18 19 20 21 22 23 24 25 26 27 28 29 30 31 32 33 34 35 36 37 38 39 40 41 42 43 44 45 46 47 48 49 50
000
NZUS99 KSGF 040807
HRRSGF

HOURLY WEATHER
NATIONAL WEATHER SERVICE SPRINGFIELD MO
200 AM CST SUN DEC 04 2016

......SGF CWA......

CITY           SKY/WX    TMP DP  RH WIND       PRES   REMARKS
SPRINGFIELD    CLOUDY    39  36  89 SE14      30.03F WCI  31
JOPLIN         CLOUDY    40  40 100 E3        30.05R FOG
WEST PLAINS    CLOUDY    37  35  92 E7        30.10F FOG     WCI  32
ROLLA          MIX PCPN  36  35  96 E7        30.10S FOG     WCI  30
OSAGE BEACH    LGT RAIN  38  35  89 E6        30.11F WCI  33
BRANSON        CLOUDY    37  37 100 E10       30.04F WCI  30

......SURROUNDING SGF CWA......

CITY           SKY/WX    TMP DP  RH WIND       PRES   REMARKS
CHANUTE        LGT RAIN  41  39  93 E7        30.04F FOG
PARSONS        LGT RAIN  41  40  96 E3        30.05F FOG
COFFEYVILLE    LGT RAIN  42  41  96 NE5       30.04F FOG
EMPORIA        RAIN      40  40 100 N3        30.04S FOG
GROVE OK       CLOUDY    43  43 100 CALM      30.05R FOG
ROGERS AR      CLOUDY    40  39  97 E8        30.01F WCI  34
SILOAM SPRINGS CLOUDY    43  39  87 E5        30.01S
HARRISON AR    CLOUDY    38  38 100 E10       30.03F FOG     WCI  31
NEAR YELLVILLE CLOUDY    39  34  81 E7        30.05F WCI  34

......KANSAS AND MISSOURI......

CITY           SKY/WX    TMP DP  RH WIND       PRES   REMARKS
KANSAS CTY INT RAIN      40  38  93 SE7       30.06F FOG
DOWNTOWN KC    LGT RAIN  42  39  89 SE9       30.07F
COLUMBIA       CLOUDY    38  35  89 E5        30.12F WCI  34
SEDALIA        CLOUDY    40  36  86 SE7       30.10F
ST JOSEPH      LGT RAIN  40  39  97 CALM      30.07F FOG
ST LOUIS       CLOUDY    41  32  70 E8        30.16F
SPIRIT OF STL  LGT RAIN  40  33  76 E6        30.15F
KIRKSVILLE     CLOUDY    37  34  89 S7        30.14R WCI  32
WICHITA        LGT RAIN  41  41 100 N3        30.03F FOG
TOPEKA         LGT RAIN  40  38  93 CALM      30.06S FOG
OLATHE         LGT RAIN  39  38  96 SE8       30.05F FOG     WCI  33

......TENNESSEE......

CITY           SKY/WX    TMP DP  RH WIND       PRES   REMARKS
MEMPHIS        LGT RAIN  43  41  93 NE5       30.06R
NASHVILLE      LGT RAIN  40  38  93 E6        30.18S

......ARKANSAS.......

CITY           SKY/WX    TMP DP  RH WIND       PRES   REMARKS
FAYETTEVILLE   CLOUDY    43  42  97 E3        30.01F
FT SMITH       CLOUDY    43  41  93 E9        30.03S FOG
LITTLE ROCK    DRIZZLE   42  42 100 NE10      30.06F FOG

......OKLAHOMA.......

CITY           SKY/WX    TMP DP  RH WIND       PRES   REMARKS
TULSA          DRZL/FOG  45  44  97 CALM      30.02F VSB 1
PONCA CITY     LGT RAIN  44  41  89 CALM      30.02F FOG
MCALESTER      CLOUDY    46  43  89 NE5       29.99F FOG
OKLAHOMA CITY  LGT RAIN  44  43  96 CALM      30.01R

......IOWA............

CITY           SKY/WX    TMP DP  RH WIND       PRES   REMARKS
DES MOINES     LGT SNOW  36  34  92 SE10      30.08F FOG     WCI  28
QUAD CITIES    CLOUDY    35  27  72 SE7       30.19F WCI  29

......ILLINOIS........

CITY           SKY/WX    TMP DP  RH WIND       PRES   REMARKS
QUINCY         CLOUDY    37  34  89 SE6       30.14F WCI  32
CHICAGO        CLOUDY    32  25  75 CALM      30.24S




USA.gov is the U.S. government's official web portal to all federal, state and local government web resources and services.